Dewpoint
37 38 37 39 41 41 37 36 30 35 42 33 31 24 22 25 22 21 18 27 28 29 30 31 34 34 32 31 29 24 32 26 23 22 31 27 23 23 25 23 26 27 28 25
38 37 37 38 40 40 37 34 28 34 40 26 23 23 20 22 23 24 18 18 25 32 32 30 33 35 34 35 32 29 29 28 26 28 29 29 27 29 30 32 31 28 29 26
38 36 37 37 39 40 37 34 32 28 35 32 26 22 21 24 24 31 30 28 36 34 33 34 33 34 34 36 34 39 34 26 24 22 25 27 29 29 29 28 29 24 25 21
38 38 36 37 39 42 36 34 30 28 29 29 27 25 27 25 27 26 33 30 29 31 29 29 31 33 33 30 36 35 32 24 25 24 23 23 21 19 20 21 22 23 21 21
36 36 37 38 38 41 38 34 28 28 25 26 24 22 25 23 22 28 27 28 30 28 29 31 30 31 31 30 30 31 33 25 21 22 20 17 15 14 14 17 20 21 23 24
35 37 38 36 38 41 38 35 35 32 23 21 21 20 17 19 22 24 27 29 28 28 30 32 33 34 34 32 31 30 26 22 16 17 17 13 13 18 15 18 22 23 23 28
36 37 38 37 39 42 41 38 37 31 24 21 19 20 19 19 20 24 27 29 29 30 33 34 33 34 31 30 31 31 23 19 21 18 16 5 19 20 23 21 27 29 30 34
37 40 40 38 40 42 42 40 38 33 27 21 17 21 22 23 25 25 27 28 30 35 34 27 17 22 23 25 29 28 29 24 21 17 12 14 23 27 26 24 24 32 35 36
38 40 36 37 40 41 43 40 41 37 32 22 22 22 24 23 23 22 25 30 34 35 31 26 20 18 19 18 21 29 28 28 24 21 11 11 27 29 31 30 21 33 34 35
38 40 37 36 40 40 43 41 41 38 34 27 27 24 22 25 22 21 24 27 30 33 31 26 23 20 23 18 17 22 25 27 24 23 19 21 32 31 31 21 30 35 34 32
38 40 37 37 39 40 42 41 41 38 32 29 30 28 26 24 25 24 27 29 29 31 28 24 25 25 26 24 27 26 23 25 26 25 21 17 34 30 29 34 36 35 34 33
39 40 38 37 38 40 42 39 42 42 36 34 36 35 34 31 29 29 31 31 28 31 28 27 27 27 28 25 23 28 28 30 29 29 28 34 33 33 33 34 32 35 35 35
38 39 38 37 38 39 42 41 41 39 35 35 33 32 33 36 35 34 30 30 31 33 36 32 29 28 29 25 24 26 32 33 33 33 31 30 33 32 33 32 32 32 33 33
40 39 38 38 39 40 41 42 42 40 37 31 28 32 32 32 35 34 33 31 33 35 36 32 29 28 32 29 29 28 31 30 30 32 33 31 30 31 32 31 31 29 28 28
39 37 37 38 40 41 43 44 42 42 37 32 30 33 32 33 33 33 34 33 32 33 30 32 30 30 32 34 33 29 29 29 30 28 32 32 30 31 31 28 27 26 25 24
38 37 37 39 40 42 41 34 42 43 42 34 30 32 30 34 33 33 33 33 33 33 31 33 36 36 34 30 26 31 34 32 34 31 33 32 31 31 30 27 22 21 21 21
38 38 38 39 41 43 37 36 39 43 42 34 31 28 34 33 32 33 33 34 34 32 32 33 33 32 34 32 25 28 29 30 30 32 32 28 27 25 23 22 20 20 18 18
37 37 39 41 43 43 40 42 43 42 37 36 31 28 31 34 32 31 35 33 33 34 33 33 32 32 34 29 27 25 25 25 24 26 27 26 24 22 21 21 19 18 17 16
37 39 42 43 40 37 39 44 43 44 38 31 30 28 28 36 34 33 35 33 30 35 31 30 32 30 29 28 27 24 23 23 21 24 23 23 21 20 19 19 18 17 17 17
38 41 37 32 38 44 42 39 35 36 36 35 28 33 31 36 35 33 33 34 30 27 28 33 31 28 25 24 24 23 23 21 21 23 21 22 19 19 18 18 18 18 17 17
38 33 35 41 42 39 36 32 30 31 28 29 29 30 30 36 32 32 33 32 31 24 27 27 27 26 24 22 20 19 19 19 20 21 21 20 20 19 18 17 17 16 16 16
37 39 41 39 36 34 31 28 29 26 23 28 28 29 32 35 38 33 33 28 30 24 32 28 25 22 21 21 19 19 18 18 17 17 17 18 17 17 17 17 17 17 15 15
41 37 33 34 33 28 25 22 24 26 30 32 33 31 33 35 36 34 32 26 26 34 30 27 25 21 20 19 17 16 17 17 16 16 17 16 17 16 16 15 15 15 14 14
34 33 29 30 27 28 29 27 31 35 35 34 34 32 30 33 31 34 28 30 30 25 24 23 22 22 21 20 18 16 16 16 16 16 16 15 14 14 14 14 14 13 13 12
33 33 28 27 31 30 32 35 34 33 37 34 34 34 33 33 31 32 29 26 23 24 26 24 23 22 20 19 18 17 15 14 15 16 15 14 14 14 14 14 15 13 12 11
29 26 27 28 29 28 31 33 33 35 37 37 36 30 30 29 29 26 26 24 23 25 23 23 22 20 18 18 17 16 17 17 17 17 16 15 15 15 16 15 15 14 13 11
22 26 28 30 32 31 30 32 34 35 37 34 32 28 27 27 26 24 24 27 23 22 22 23 22 20 18 17 16 16 17 17 17 17 16 16 16 15 15 15 16 15 13 12
Lifted_Index
11 11 10 10 9 9 9 8 8 8 7 6 5 4 4 4 4 5 5 4 4 3 2 1 1 1 1 0 -0 -0 -1 -0 -0 -0 0 1 1 1 1 2 2 2 1 1
11 11 10 10 9 9 9 8 8 7 7 6 5 4 3 3 4 4 4 4 3 3 2 2 1 1 1 0 0 -0 -0 -0 -0 -0 0 1 1 1 1 1 2 1 1 1
11 11 10 10 9 9 8 8 7 7 7 6 4 3 3 3 3 2 2 2 2 2 2 2 2 1 1 1 1 1 0 -0 -0 -0 0 1 1 1 1 2 2 2 2 2
11 11 10 10 9 8 8 8 7 7 6 6 4 3 2 2 2 2 1 1 1 1 2 3 3 3 2 2 2 1 1 0 -0 0 0 1 1 2 2 2 2 2 2 2
11 10 10 10 9 8 8 8 7 7 6 6 4 3 2 2 2 2 2 2 1 1 2 3 3 4 3 3 3 2 2 1 1 1 2 2 2 3 3 3 3 3 3 3
11 10 10 10 9 8 8 8 8 7 6 6 5 3 3 2 2 2 2 2 1 1 2 3 3 4 4 4 3 3 3 2 2 2 2 2 3 4 4 4 3 3 3 3
10 10 10 10 9 8 8 8 8 7 6 6 5 4 4 3 3 3 2 2 2 2 2 2 2 2 3 3 3 3 3 3 2 2 2 2 3 3 4 4 4 4 3 3
10 10 10 9 9 8 8 8 8 7 6 5 5 5 4 4 3 3 3 3 3 3 2 1 1 1 2 2 2 2 2 3 2 2 1 2 3 3 3 4 4 4 4 3
9 9 10 9 9 8 7 7 7 7 6 5 5 5 4 4 3 3 3 3 3 2 2 1 1 1 1 2 2 2 2 2 2 2 2 2 3 3 3 3 4 5 5 4
9 9 10 9 9 8 7 7 7 7 6 5 5 4 4 4 4 3 3 3 3 2 2 1 1 1 2 2 2 2 2 2 2 2 2 2 3 3 3 3 4 5 5 5
9 9 9 9 9 8 7 7 7 6 5 5 4 4 4 4 4 4 3 3 3 3 2 2 2 2 2 2 2 2 2 2 2 2 2 2 3 4 4 4 5 5 5 5
8 8 9 9 9 8 7 7 6 6 5 5 5 4 4 4 4 4 4 4 4 3 3 3 3 3 3 2 2 2 2 2 2 2 3 3 4 4 5 5 5 5 5 5
8 8 8 9 8 8 7 6 6 6 5 5 4 4 4 4 5 5 5 5 4 4 4 4 3 3 3 2 2 2 3 3 3 3 3 4 4 5 5 5 5 6 6 5
8 8 8 8 8 7 6 6 6 5 5 4 4 4 4 4 5 5 5 5 5 5 4 4 4 3 2 2 2 2 3 2 2 2 3 4 4 5 5 5 5 5 5 5
8 8 8 8 7 7 6 6 5 5 5 4 4 4 4 4 5 5 5 6 5 5 5 4 3 3 2 2 2 2 2 2 2 2 3 4 4 5 5 5 5 6 5 5
8 8 8 7 6 6 5 5 5 5 5 4 4 4 4 4 5 5 5 5 5 5 5 4 3 2 2 2 2 2 2 2 2 3 3 4 4 5 5 6 6 6 6 6
7 7 7 6 6 5 5 4 4 4 5 4 4 4 4 4 4 5 5 5 5 5 4 3 2 2 1 2 2 2 2 3 3 4 4 4 5 5 6 6 7 7 7 8
6 6 5 5 4 4 4 4 4 4 4 4 4 4 4 4 4 4 4 4 4 4 3 2 2 1 1 1 2 2 2 2 3 4 5 5 5 5 6 7 7 7 8 8
6 5 4 3 3 3 4 4 4 4 4 4 4 4 3 3 3 3 3 3 3 2 2 2 2 1 1 2 2 3 3 3 3 4 4 5 5 6 7 8 8 8 8 9
5 4 3 3 3 3 3 4 4 4 4 4 4 3 2 2 2 2 3 2 2 2 2 2 2 2 2 3 3 3 4 4 4 5 5 5 6 6 7 8 9 9 10 10
4 3 2 2 2 2 3 3 3 3 3 4 4 3 2 2 1 1 2 2 2 2 2 2 2 2 2 3 4 4 5 6 6 7 7 8 8 8 9 10 11 11 12 12
3 2 2 2 2 2 2 3 3 3 3 3 3 3 2 2 1 1 1 2 2 2 2 2 1 2 2 3 5 6 7 8 8 9 9 10 11 11 11 11 12 13 14 14
2 2 2 2 2 2 2 2 2 2 3 3 3 3 2 2 2 2 1 2 2 2 2 1 1 2 3 4 6 7 8 9 9 10 11 11 12 12 13 13 14 14 15 15
1 1 1 1 1 2 2 2 2 2 3 3 3 3 3 2 2 2 2 2 2 2 1 1 2 2 4 5 7 8 9 10 10 11 11 12 12 13 13 14 15 15 15 15
1 1 1 1 2 2 2 2 2 3 3 3 3 3 2 2 2 2 2 1 1 1 1 1 2 4 5 7 8 9 10 10 11 11 12 12 13 13 14 14 15 15 15 15
1 1 1 1 2 2 2 2 2 3 3 2 2 2 2 2 2 2 1 1 1 1 1 2 4 5 7 8 9 10 11 11 12 12 12 13 13 13 13 14 14 15 15 15
1 1 1 1 1 1 2 2 2 3 2 2 2 2 2 2 2 2 1 1 1 1 2 3 5 6 8 9 10 11 11 12 12 12 13 13 13 13 13 14 14 15 15 15